Regional Weather Roundup
Issued by NWS Portland, ME

Current Version | Previous Version | Text Only | Print | Product List | Glossary Off
Versions: 1 2 3 4 5 6 7 8 9 10 11 12 13 14 15 16 17 18 19 20 21 22 23 24 25 26 27 28 29 30 31 32 33 34 35 36 37 38 39 40 41 42 43 44 45 46 47 48 49 50
802 ASUS41 KGYX 192305 RWRGYX WEATHER ROUNDUP FOR MAINE AND NEW HAMPSHIRE NATIONAL WEATHER SERVICE GRAY ME 600 PM EST SAT JAN 19 2019 MEZ002-005-006-010-012-015-018-020-021-024-026-027-029-200000- MAINE CITY SKY/WX TMP DP RH WIND PRES REMARKS PORTLAND CLOUDY 21 2 43 NE13 30.33S WCI 9 SANFORD CLOUDY 22 10 60 NE7 30.30R BAR HARBOR CLOUDY 13 -2 51 N9 30.38F WISCASSET CLOUDY 17 -5 37 VRB5 30.36F ROCKLAND CLOUDY 16 4 59 NE9 30.36F FRYEBURG FLURRIES 15 11 83 N6 30.29S LEWISTONAUBURN FLURRIES 15 -1 49 NE10 30.33R WCI 2 AUGUSTA LGT SNOW 11 -2 56 NE9 30.35R WATERVILLE CLOUDY 11 -8 42 MISG 30.32F BANGOR CLOUDY 9 -2 61 N10 30.40S WCI -5 GREENVILLE N/A 0 -13 54 NE7 30.23F MILLINOCKET CLOUDY 3 -9 57 NE3 30.40S HOULTON CLOUDY -4 -17 53 N5 30.41R PRESQUE ISLE CLOUDY -5 -17 56 NE7 30.42R FRENCHVILLE FAIR -10 -22 55 N9 30.34R CARIBOU CLOUDY -7 -21 51 N6 30.39R $$ NHZ002-005-008-009-011-012-014-200000- NEW HAMPSHIRE CITY SKY/WX TMP DP RH WIND PRES REMARKS PORTSMOUTH FLURRIES 25 15 65 E9 30.27S ROCHESTER CLOUDY 24 14 65 E6 30.27S MANCHESTER CLOUDY 27 17 66 E8 30.23F CONCORD CLOUDY 23 16 74 NE7 30.24F LACONIA SNOW 19 13 77 E7 30.24F VSB 1/2 PLYMOUTH LGT SNOW 14 11 87 CALM 30.25F BERLIN LGT SNOW 9 5 84 NW3 30.22F VSB 1 WHITEFIELD LGT SNOW 9 5 84 N3 30.21F VSB 3/4 JAFFREY CLOUDY 24 13 62 VRB3 30.14F KEENE CLOUDY 27 15 61 CALM 30.16F LEBANON LGT SNOW 13 7 77 N5 30.23F VSB 3/4 MT WASHINGTON SNOW 1 1 100 SW35G47 N/A VSB 1/8 WCI -25 $$ VTZ005-007-008-200000- VERMONT CITY SKY/WX TMP DP RH WIND PRES REMARKS ST JOHNSBURY N/A 7 4 87 MISG 30.24F MONTPELIER LGT SNOW 6 4 91 N3 30.23F FOG BURLINGTON LGT SNOW -5 -12 72 N8 30.31F $$ MAZ007-012-024-CTZ003-RIZ002-NYZ038-NYZ072-200000- SOUTHERN NEW ENGLAND AND NY CITY SKY/WX TMP DP RH WIND PRES REMARKS BOSTON LGT SNOW 30 25 81 E14 30.27F WCI 19 WORCESTER CLOUDY 24 17 74 E9 30.14F NANTUCKET CLOUDY 35 31 85 E15 30.22R PROVIDENCE LGT SNOW 28 24 85 NE10 30.21F FOG WCI 19 HARTFORD CLOUDY 30 18 60 N6 30.14F ALBANY LGT SNOW 11 5 77 N9 30.21S VSB 1 NEW YORK CITY CLOUDY 37 26 64 E9 30.11F $$ ANZ081-ANZ082-ANZ150-NHZ014-MEZ023>029-200000- COASTAL MARINE OBSERVATIONS STATION/POSITION TIME TEMP WIND PRES WAVE AIR SEA DIR/SP/G HT/PER (UTC) (F) (DEG/KT/KT) (MB) (FT/S) MOUNT DESERT ROC 2300 19 30/ 13/ 15 1028.0R MATINICUS ROCK 2200 19 30/ 12/ 14 1027.6R ISLE OF SHOALS 2200 26 70/ 17/ 20 1025.2F JEFFREYS LEDGE 2238 44 N/A 3/ 5 CASHES LEDGE BUO 2250 24 40 1026.8F 3/ 8 $$ .............KEY.............. WCI - WIND CHILL TC - TEMPERATURE IN CELSIUS VSB - VISIBILITY IN MILES HX - HEAT INDEX FAIR- INDICATES FEW OR NO CLOUDS BELOW 12,000 FT, WITH NO SIGNIFICANT WEATHER AND/OR OBSTRUCTIONS TO VISIBILITY.

USA.gov is the U.S. government's official web portal to all federal, state and local government web resources and services.